Location: Albany
(35.0000°S, 118.0000°E)
Time: 19:23:49
(UTC-05:00)

Vanguard 3 - Visible Passes

Search period start: 10 February 2016 00:00
Search period end: 20 February 2016 00:00
Orbit: 508 x 3268 km, 33.3° (Epoch: 09 February)

Date Brightness Start Highest point End Pass type
(mag) Time Alt. Az. Time Alt. Az. Time Alt. Az.
10 Feb 10.9 06:21:58 10° W 06:37:19 29° NW 06:49:59 10° N visible
11 Feb 11.2 07:28:14 10° WNW 07:35:41 14° NW 07:42:23 10° NNW visible
12 Feb 11.1 06:06:50 10° W 06:21:17 26° NW 06:33:56 10° N visible
13 Feb 11.4 07:15:49 10° WNW 07:19:49 11° NW 07:23:39 10° NW visible
